Dutch Harbor, AK

5:21 PM AKST on January 16, 2018 (GMT -0900)
Unalaska

Weather History for PADU - April, 2013

Change the Weather History Date:

Tuesday, April 23, 2013

  Actual Average Record
Temperature  
Mean Temperature 40 °F -  
Max Temperature 43 °F 41 °F 48 °F (2003)
Min Temperature 37 °F 31 °F 15 °F (1987)
Degree Days  
Heating Degree Days 26    
Moisture  
Dew Point 35 °F    
Average Humidity 87    
Maximum Humidity 93    
Minimum Humidity 76    
Precipitation  
Precipitation 0.08 in - - ()
Sea Level Pressure  
Sea Level Pressure 30.18 in    
Wind  
Wind Speed 12 mph (NE)    
Max Wind Speed 22 mph    
Max Gust Speed 47 mph    
Visibility 5 miles    
Events Rain    
Averages and records for this station are not official NWS values.
T = Trace of Precipitation, MM = Missing Value Source: NWS Daily Summary

Daily Weather History Graph

Daily Weather History Graph

Search for Another Location

Airport or City:

Trip Planner

Search our weather history database for the weather conditions in past years. The results will help you decide how hot, cold, wet, or windy it might be!

Date:

Astronomy

Apr. 23, 2013 Rise Set
Actual Time 7:46 AM AKDT 10:23 PM AKDT
Civil Twilight 7:06 AM AKDT 11:03 PM AKDT
Nautical Twilight 6:15 AM AKDT 11:54 PM AKDT
Astronomical Twilight 5:13 AM AKDT 12:58 AM AKDT
Moon 8:20 PM AKDT (4/23) 6:40 AM AKDT (4/23)
Length of Visible Light 15h 56m
Length of Day
14h 37m
Waxing Gibbous, 95% of the Moon is Illuminated
Apr 23
Waxing Gibbous
Apr 25
Full
May 2
Last Quarter
May 9
New
May 17
First Quarter

Hourly Weather History & Observations

Time (AKDT) Temp. Windchill Dew Point Humidity Pressure Visibility Wind Dir Wind Speed Gust Speed Precip Events Conditions
12:56 AM 37.0 °F 30.4 °F 30.0 °F 76% 30.22 in - North 9.2 mph 31.1 mph N/A   Overcast
1:56 AM 37.0 °F 31.6 °F 30.0 °F 76% 30.21 in - Variable 6.9 mph 29.9 mph N/A   Overcast
2:56 AM 37.0 °F 26.4 °F 30.9 °F 79% 30.20 in - NW 20.7 mph 33.4 mph N/A   Overcast
3:47 AM 37.4 °F 29.3 °F 32.0 °F 81% 30.18 in - NNW 12.7 mph 20.7 mph N/A   Overcast
3:56 AM 37.0 °F 27.7 °F 32.0 °F 82% 30.19 in - NNW 16.1 mph 26.5 mph N/A   Overcast
4:56 AM 37.0 °F 30.4 °F 32.0 °F 82% 30.17 in - NNE 9.2 mph 31.1 mph 0.00 in   Overcast
5:20 AM 37.4 °F 30.8 °F 33.8 °F 87% 30.15 in - NNE 9.2 mph 20.7 mph 0.00 in   Overcast
5:56 AM 37.0 °F 31.0 °F 34.0 °F 89% 30.17 in - North 8.1 mph 21.9 mph 0.00 in   Overcast
6:34 AM 37.4 °F 29.8 °F 33.8 °F 87% 30.15 in - NE 11.5 mph 16.1 mph 0.00 in Rain Light Rain
6:56 AM 37.9 °F 30.9 °F 34.0 °F 86% 30.16 in - NE 10.4 mph 26.5 mph 0.00 in Rain Light Rain
7:23 AM 37.4 °F 29.3 °F 33.8 °F 87% 30.14 in 5.0 mi East 12.7 mph 18.4 mph 0.01 in Rain Light Rain
7:56 AM 37.9 °F 33.5 °F 35.1 °F 89% 30.16 in 3.0 mi Variable 5.8 mph 42.6 mph 0.01 in Rain Light Rain
8:40 AM 37.4 °F 29.8 °F 33.8 °F 87% 30.15 in 4.0 mi NE 11.5 mph 47.2 mph 0.00 in Rain Light Rain
8:56 AM 37.0 °F 28.9 °F 35.1 °F 93% 30.17 in 4.0 mi East 12.7 mph 27.6 mph 0.00 in Rain Light Rain
9:09 AM 37.4 °F 29.8 °F 33.8 °F 87% 30.15 in 6.0 mi North 11.5 mph 29.9 mph 0.00 in Rain Light Rain
9:56 AM 37.9 °F 31.5 °F 34.0 °F 86% 30.17 in 8.0 mi NNE 9.2 mph 23.0 mph 0.00 in Rain Light Rain
10:56 AM 37.9 °F 28.9 °F 34.0 °F 86% 30.17 in 8.0 mi NE 16.1 mph 40.3 mph 0.00 in Rain Light Rain
11:56 AM 37.9 °F 30.5 °F 34.0 °F 86% 30.17 in 8.0 mi NE 11.5 mph 33.4 mph 0.00 in Rain Light Rain
12:56 PM 37.9 °F 27.6 °F 34.0 °F 86% 30.17 in - NNE 20.7 mph 33.4 mph 0.02 in Rain Light Rain
1:56 PM 39.0 °F 30.6 °F 35.1 °F 86% 30.17 in 10.0 mi NNE 15.0 mph 27.6 mph 0.03 in Rain Light Rain
2:56 PM 41.0 °F 35.2 °F 37.0 °F 86% 30.16 in 10.0 mi ENE 9.2 mph - 0.01 in Rain Light Rain
3:08 PM 41.0 °F 37.1 °F 37.4 °F 87% 30.14 in 4.0 mi East 5.8 mph - 0.00 in Rain Light Rain
4:09 PM 42.8 °F 40.1 °F 39.2 °F 87% 30.16 in 2.5 mi Variable 4.6 mph - 0.00 in Rain Light Rain
4:56 PM 42.1 °F 33.3 °F 39.9 °F 92% 30.18 in 2.5 mi East 19.6 mph 26.5 mph 0.01 in Rain Light Rain
5:09 PM 42.8 °F 33.8 °F 39.2 °F 87% 30.16 in 3.0 mi East 21.9 mph 26.5 mph 0.00 in Rain Light Rain
5:56 PM 42.1 °F 33.9 °F 39.0 °F 89% 30.19 in 3.0 mi ENE 17.3 mph 27.6 mph 0.00 in Rain Light Rain
6:08 PM 41.0 °F 31.4 °F 37.4 °F 87% 30.16 in - East 21.9 mph 25.3 mph 0.00 in Rain Light Rain
6:40 PM 41.0 °F 31.6 °F 37.4 °F 87% 30.17 in 4.0 mi East 20.7 mph 27.6 mph 0.00 in Rain Light Rain
6:56 PM 41.0 °F 31.6 °F 37.9 °F 89% 30.19 in 4.0 mi ENE 20.7 mph 27.6 mph 0.00 in Rain Light Rain
7:02 PM 41.0 °F 32.5 °F 37.4 °F 87% 30.17 in - ENE 17.3 mph 25.3 mph 0.00 in Rain Light Rain
7:56 PM 42.1 °F 34.5 °F 37.9 °F 85% 30.20 in - ENE 15.0 mph - 0.00 in   Overcast
8:56 PM 41.0 °F 34.3 °F 37.9 °F 89% 30.22 in - ENE 11.5 mph - N/A   Overcast
9:56 PM 41.0 °F 39.0 °F 37.9 °F 89% 30.25 in - East 3.5 mph - N/A   Overcast
10:54 PM 39.2 °F 35.0 °F 37.4 °F 93% 30.24 in - Variable 5.8 mph - N/A   Overcast
10:56 PM 39.9 °F 37.8 °F 37.9 °F 93% 30.26 in - Variable 3.5 mph - N/A   Overcast
11:56 PM 39.9 °F 35.8 °F 37.9 °F 93% 30.28 in - SSE 5.8 mph - N/A   Overcast